TJS-4

Last updated on Wed Nov 05 2025 00:02:49 GMT+0000 (Coordinated Universal Time)

1 44637U 19070A 25308.55242706 -.00000158 00000+0 00000+0 0 9993 2 44637 0.0390 282.5832 0006066 21.7568 22.1817 1.00271662 22218
UTC large
Height (km)
Speed (km/s)
/
Latitude / Longitude
Inclination (degrees)
Orbital Period (minutes)
Azimuth
Elevation
Range (km)
Doppler Factor

Next 0 passes for location: London (51.5072 / 0.1276)

Sorry there are no passes over London.